Northfield, Minnesota, United States (55057)
Lat: 44.46N, Lon: 93.16W
Wx Zone: MNZ077
Local Info
Past Weather Observations for Today

NOTE: This archive is for the closest National Weather Service station to Northfield. Information may differ from the station used for current weather conditions.

Time Weather Temperature Dewpoint Humidity Pressure Winds Precip Visibility
12:12
Overcast
36°F / 2°C 28°F / -2°C 75% 30.24 in
(1024 mb)
NW 5.8 mph
(NW 9 kph)
- 10SM
11:52
Overcast
36°F / 2°C 28°F / -2°C 75% 30.24 in
(1024 mb)
NW 11.5 mph
(NW 19 kph)
- 10SM
11:32
Overcast
36°F / 2°C 30°F / -1°C 81% 30.24 in
(1024 mb)
NNW 8.1 mph
(NNW 13 kph)
- 10SM
11:12
Overcast
36°F / 2°C 30°F / -1°C 81% 30.24 in
(1024 mb)
NW 10.4 mph
(NW 17 kph)
- 10SM
10:52
Overcast
36°F / 2°C 30°F / -1°C 81% 30.24 in
(1024 mb)
NNW 12.7 mph
(NNW 20 kph)
- 10SM
10:32
Overcast
36°F / 2°C 28°F / -2°C 75% 30.24 in
(1024 mb)
NW 10.4 mph
(NW 17 kph)
- 10SM
10:12
Overcast
34°F / 1°C 28°F / -2°C 81% 30.24 in
(1024 mb)
NW 10.4 mph
(NW 17 kph)
- 10SM
09:52
Overcast
34°F / 1°C 30°F / -1°C 87% 30.24 in
(1024 mb)
NW 11.5 mph
(NW 19 kph)
- 10SM
09:32
Overcast
34°F / 1°C 28°F / -2°C 81% 30.24 in
(1024 mb)
NW 12.7 mph
(NW 20 kph)
- 10SM
09:12
Overcast
34°F / 1°C 28°F / -2°C 81% 30.21 in
(1023 mb)
NW 11.5 mph
(NW 19 kph)
- 10SM
08:52
Overcast
32°F / 0°C 28°F / -2°C 87% 30.21 in
(1023 mb)
NW 12.7 mph
(NW 20 kph)
- 10SM
08:32
Overcast
32°F / 0°C 28°F / -2°C 87% 30.18 in
(1022 mb)
NW 10.4 mph
(NW 17 kph)
- 10SM
08:12
Overcast
32°F / 0°C 28°F / -2°C 87% 30.18 in
(1022 mb)
NNW 10.4 mph
(NNW 17 kph)
- 10SM
07:52
Overcast
32°F / 0°C 28°F / -2°C 87% 30.18 in
(1022 mb)
NW 10.4 mph
(NW 17 kph)
- 10SM
07:33
Overcast
32°F / 0°C 28°F / -2°C 87% 30.15 in
(1021 mb)
NNW 15 mph
(NNW 24 kph)
- 10SM
07:12
Overcast
32°F / 0°C 30°F / -1°C 93% 30.15 in
(1021 mb)
NNW 13.8 mph
(NNW 22 kph)
- 10SM
06:52
Overcast
32°F / 0°C 30°F / -1°C 93% 30.12 in
(1020 mb)
NNW 10.4 mph
(NNW 17 kph)
- 10SM
06:33
Overcast
32°F / 0°C 30°F / -1°C 93% 30.12 in
(1020 mb)
NW 13.8 mph
(NW 22 kph)
- 10SM
06:12
Overcast
32°F / 0°C 30°F / -1°C 93% 30.12 in
(1020 mb)
NNW 12.7 mph
(NNW 20 kph)
- 10SM
05:52
Overcast
32°F / 0°C 30°F / -1°C 93% 30.09 in
(1019 mb)
NNW 18.4 mph
(NNW 30 kph)
- 10SM
05:33
Overcast
32°F / 0°C 30°F / -1°C 93% 30.09 in
(1019 mb)
NNW 16.1 mph
(NNW 26 kph)
- 10SM
05:12
Overcast
32°F / 0°C 30°F / -1°C 93% 30.06 in
(1018 mb)
NNW 15 mph
(NNW 24 kph)
- 10SM
04:52
Overcast
32°F / 0°C 30°F / -1°C 93% 30.06 in
(1018 mb)
NNW 15 mph
(NNW 24 kph)
- 10SM
04:33
Overcast
32°F / 0°C 30°F / -1°C 93% 30.06 in
(1018 mb)
NNW 17.3 mph
(NNW 28 kph)
- 10SM
04:12
Overcast
32°F / 0°C 30°F / -1°C 93% 30.04 in
(1017 mb)
NNW 15 mph
(NNW 24 kph)
- 7SM
03:52
Overcast
32°F / 0°C 30°F / -1°C 93% 30.04 in
(1017 mb)
NNW 17.3 mph
(NNW 28 kph)
- 7SM
03:33
Overcast
32°F / 0°C 30°F / -1°C 93% 30.04 in
(1017 mb)
NNW 15 mph
(NNW 24 kph)
- 7SM
03:12
Overcast
32°F / 0°C 30°F / -1°C 93% 30.01 in
(1016 mb)
NNW 17.3 mph
(NNW 28 kph)
- 10SM
02:52
Overcast
32°F / 0°C 30°F / -1°C 93% 29.98 in
(1015 mb)
NNW 15 mph
(NNW 24 kph)
- 10SM
02:33
Overcast
32°F / 0°C 30°F / -1°C 93% 29.98 in
(1015 mb)
N 17.3 mph
(N 28 kph)
- 10SM
02:12
Overcast
32°F / 0°C 30°F / -1°C 93% 29.95 in
(1014 mb)
NNW 20.7 mph
(NNW 33 kph)
- 10SM
01:52
Overcast
32°F / 0°C 30°F / -1°C 93% 29.95 in
(1014 mb)
NNW 16.1 mph
(NNW 26 kph)
- 10SM
01:33
Overcast
32°F / 0°C 32°F / 0°C 100% 29.95 in
(1014 mb)
NNW 20.7 mph
(NNW 33 kph)
- 10SM
01:12
Overcast
34°F / 1°C 32°F / 0°C 93% 29.92 in
(1013 mb)
NNW 20.7 mph
(NNW 33 kph)
- 7SM
00:52
Overcast
Fog And Mist
34°F / 1°C 32°F / 0°C 93% 29.92 in
(1013 mb)
NNW 17.3 mph
(NNW 28 kph)
- 5SM
00:32
Overcast
Fog And Mist
36°F / 2°C 34°F / 1°C 93% 29.92 in
(1013 mb)
N 17.3 mph
(N 28 kph)
- 5SM
00:12
Overcast
Drizzle
37°F / 3°C 36°F / 2°C 93% 29.89 in
(1012 mb)
N 16.1 mph
(N 26 kph)
- 3SM
Time Weather Temperature Dewpoint Humidity Pressure Winds Precip Visibility


Weather for websites

WeatherForYou.com, LLC is not responsible for any damages or problems caused by this service. Current weather conditions are obtained from the closest station including government and personal stations which may have varying degrees of accuracy. Weather forecasts are derived from the NOAA NDFD. Like all things, this site belongs to Jesus Christ... He just trusts me to maintain it. If you have any questions or comments email webmaster@weatherforyou.com

Copyright © 2014, WeatherForYou.com LLC. All rights reserved.